Location: Caltech
(34.1382°N, 118.1253°W)
Time: 15:34:32
(UTC-07:00)

OAO 2 Rocket - Visible Passes

Search period start: 30 May 2015 00:00
Search period end: 09 June 2015 00:00
Orbit: 677 x 748 km, 35.0° (Epoch: 30 May)

Date Brightness Start Highest point End Pass type
(mag) Time Alt. Az. Time Alt. Az. Time Alt. Az.
30 May 4.9 03:03:53 24° SE 03:03:53 24° SE 03:07:05 10° E visible
30 May 3.5 04:42:51 15° WSW 04:47:15 70° SSE 04:52:33 10° E visible
31 May 3.6 03:48:20 40° SSW 03:49:48 54° SSE 03:55:00 10° E visible
01 Jun 4.4 02:53:47 34° ESE 02:53:47 34° ESE 02:57:22 10° E visible
01 Jun 3.4 04:32:45 15° WSW 04:37:07 88° SSE 04:42:27 10° E visible
02 Jun 5.9 01:59:14 12° E 01:59:14 12° E 01:59:36 10° E visible
02 Jun 3.3 03:38:11 47° WSW 03:39:38 75° SSE 03:44:57 10° E visible
03 Jun 4.1 02:43:37 43° ESE 02:43:37 43° ESE 02:47:24 10° E visible
03 Jun 3.5 04:22:35 14° W 04:27:03 82° N 04:32:22 10° E visible
04 Jun 5.8 01:49:04 14° E 01:49:04 14° E 01:49:47 10° E visible
04 Jun 3.3 03:28:01 47° W 03:29:32 89° NNW 03:34:50 10° E visible
04 Jun 3.5 05:09:15 10° W 05:14:31 86° N 05:19:52 10° E visible
05 Jun 4.0 02:33:29 49° E 02:33:29 49° E 02:37:18 10° E visible
05 Jun 3.5 04:12:27 14° W 04:17:00 81° N 04:22:19 10° E visible
06 Jun 5.7 01:38:59 14° E 01:38:59 14° E 01:39:47 10° E visible
06 Jun 3.4 03:17:58 47° W 03:19:29 81° N 03:24:45 10° E visible
06 Jun 3.4 04:59:12 10° W 05:04:25 79° SSW 05:09:45 10° ESE visible
07 Jun 4.1 02:23:32 46° ENE 02:23:32 46° ENE 02:27:13 10° E visible
07 Jun 3.3 04:02:31 14° W 04:06:57 89° NNE 04:12:14 10° E visible
08 Jun 5.9 01:29:14 12° E 01:29:14 12° E 01:29:41 10° E visible
08 Jun 3.3 03:08:13 53° WNW 03:09:26 82° N 03:14:41 10° E visible
08 Jun 3.5 04:49:10 10° W 04:54:16 59° SSW 04:59:28 10° ESE visible
